Regional Weather Roundup
Issued by NWS Sioux Falls, SD

Home | Current Version | Previous Version | Text Only | Print | Product List | Glossary Off
Versions: 1 2 3 4 5 6 7 8 9 10 11 12 13 14 15 16 17 18 19 20 21 22 23 24 25 26 27 28 29 30 31 32 33 34 35 36 37 38 39 40 41 42 43 44 45 46 47 48 49 50

095
ASUS43 KFSD 221502
RWRFSD

WEATHER ROUNDUP FOR SE SOUTH DAKOTA/SW MINNESOTA/NW IOWA
NATIONAL WEATHER SERVICE SIOUX FALLS SD
900 AM CST THU FEB 22 2018

NOTE: "FAIR" INDICATES FEW OR NO CLOUDS BELOW 12,000 FEET WITH NO
SIGNIFICANT WEATHER AND OR OBSTRUCTIONS TO VISIBILITY.


SDZ038>040-050-052>070-221600-
SOUTHEAST SOUTH DAKOTA

CITY           SKY/WX    TMP DP  RH WIND       PRES   REMARKS
BROOKINGS      FLURRIES  17  13  84 SE10      30.44S WCI   5
CHAMBERLAIN    CLOUDY    20  17  88 E7        30.34F WCI  11
HURON          CLOUDY    18  12  77 SE12      30.41S WCI   5
MADISON        CLOUDY    16  16 100 SE9       30.43R WCI   4
MITCHELL       CLOUDY    19  14  81 SE13      30.42F WCI   6
SIOUX FALLS    CLOUDY    19  16  88 E6        30.45R WCI  11
WINNER         CLOUDY    21  15  78 S8        30.29F WCI  11
YANKTON        CLOUDY    19  16  88 E9        30.42S WCI   8
$$

MNZ071-072-080-081-089-090-097-098-221600-
SOUTHWEST MINNESOTA

CITY           SKY/WX    TMP DP  RH WIND       PRES   REMARKS
FAIRMONT       CLOUDY    18  14  84 NE6       30.50F WCI  10
JACKSON        CLOUDY    18  14  86 E7        30.47F WCI   8
LUVERNE        CLOUDY    19  14  79 E6        30.47S WCI  11
MARSHALL       FLURRIES  14   8  77 SE8       30.51R WCI   3
MONTEVIDEO     CLOUDY    12   5  73 S8        30.53S WCI   1
PIPESTONE      CLOUDY    16  12  86 SE3       30.45R
REDWOOD FALLS  CLOUDY    13   7  77 E5        30.52F WCI   5
TRACY          CLOUDY    16  13  87 SE8       30.48S WCI   5
WORTHINGTON    CLOUDY    16  13  88 E8        30.46S WCI   5
$$

IAZ001>003-012>014-020>022-031-032-NEZ013-014-SDZ071-221600-
NORTHWEST IOWA

CITY           SKY/WX    TMP DP  RH WIND       PRES   REMARKS
CHEROKEE       CLOUDY    23  20  90 E8        30.45F WCI  14
DENISON        MIX PCPN  23  19  86 E10       30.44F WCI  12
ESTHERVILLE    PTSUNNY   18  16  92 E8        30.47F WCI   8
LE MARS        CLOUDY    23  19  86 E6        30.44F WCI  16
ORANGE CITY    CLOUDY    23  21  93 E8        30.43F WCI  14
SHELDON        CLOUDY    19  19 100 E8        30.43F WCI   9
SIOUX CITY     CLOUDY    22  18  85 E7        30.43F WCI  13
SPENCER        MIX PCPN  22  19  89 E7        30.46F FOG     WCI  13
STORM LAKE     FAIR      21  19  93 E10       30.43F WCI  10
$$

ABBREVIATIONS USED IN REMARKS
   TC - TEMPERATURE IN CELSIUS
  WCI - WIND CHILL INDEX
   HX - HEAT INDEX
  VSB - VISIBILITY





USA.gov is the U.S. government's official web portal to all federal, state and local government web resources and services.